Regional Weather Roundup
Issued by NWS

Home | Current Version | Previous Version | Graphics & Text | Print | Product List | Glossary On
Versions: 1 2 3 4 5 6 7 8 9 10 11 12 13 14 15 16 17 18 19 20 21 22 23 24 25 26 27 28 29 30 31 32 33 34 35 36 37 38 39 40 41 42 43 44 45 46 47 48 49 50
000
ASUS43 KLMK 291610
RWRKY
KENTUCKY REGIONAL WEATHER ROUNDUP
NATIONAL WEATHER SERVICE LOUISVILLE KY
1200 PM EDT SAT APR 29 2017

NOTE "FAIR" INDICATES FEW OR NO CLOUDS BELOW 12,000 FEET
WITH NO SIGNIFICANT WEATHER AND/OR OBSTRUCTIONS TO VISIBILITY.

KYZ001>023-026-027-061>063-070>075-291700-
WESTERN AND SOUTH CENTRAL KENTUCKY

CITY           SKY/WX    TMP DP  RH WIND       PRES   REMARKS
PADUCAH        MOSUNNY   81  68  64 SE13G18   29.94F
HENDERSON        N/A    N/A N/A N/A MISG        N/A
OWENSBORO      CLOUDY    72  63  73 E13       30.02S
HOPKINSVILLE   PTSUNNY   79  68  67 SW6       30.01R
BOWLING GREEN  CLOUDY    81  68  64 S6        30.04S
GLASGOW        PTSUNNY   81  65  59 SW3       30.05F
$$

KYZ024-025-028>034-038-045-046-053-291700-
NORTH CENTRAL KENTUCKY

CITY           SKY/WX    TMP DP  RH WIND       PRES   REMARKS
LOUISVILLE/SDF CLOUDY    71  65  81 E7        30.08S
LOUISVILLE/LOU PTSUNNY   72  66  81 CALM      30.09S
FORT KNOX      CLOUDY    68  66  92 NE8       30.07S
$$

KYZ035>037-039>044-047>052-055>060-089>105-291700-
NORTHEAST KENTUCKY

CITY           SKY/WX    TMP DP  RH WIND       PRES   REMARKS
LEXINGTON      CLOUDY    72  64  76 N8        30.12R
COVINGTON      CLOUDY    66  63  90 CALM      30.11R
FRANKFORT      CLOUDY    71  63  75 NE7       30.09F
$$

KYZ054-064>069-076>088-106>120-291700-
SOUTHEAST KENTUCKY

CITY           SKY/WX    TMP DP  RH WIND       PRES   REMARKS
JACKSON        CLOUDY    82  67  60 CALM      30.13R
LONDON         MOSUNNY   81  63  54 S10       30.10S
SOMERSET       CLOUDY    81  63  54 W9        30.10S
MIDDLESBORO    CLOUDY    83  62  49 S13G25    30.11F
MONTICELLO     CLOUDY    84  68  58 SW13G22   30.09S
$$





USA.gov is the U.S. government's official web portal to all federal, state and local government web resources and services.